[[[{"header":{"parameterUnit":"kt","parameterCategory":2,"dx":1,"dy":1,"la1":30.253999710083008,"la2":30.299108505249023,"lo1":-89.0895004272461,"lo2":-89.04439544677734,"nx":28,"ny":28,"refTime":"2022-09-19T21:00:00:Z","depth":0,"parameterNumber":1,"parameterNumberName":"U-component_of_WINDS"},"data":[-1.014,-1.0031,-0.9982,-0.9833,-0.9763,-0.9652,-0.9596,-0.9518,-0.9442,-0.9302,-0.9212,-0.9147,-0.9049,-0.8926,-0.8824,-0.8797,-0.8758,-0.8758,-0.8725,-0.8775,-0.8778,-0.8782,-0.8806,-0.875,-0.8749,-0.8682,-0.8681,-0.8681,-1.0186,-1.0117,-1.0023,-0.9898,-0.9818,-0.9789,-0.9685,-0.9619,-0.9519,-0.9424,-0.9332,-0.9203,-0.9093,-0.8991,-0.8876,-0.8821,-0.88,-0.8794,-0.8797,-0.8782,-0.8833,-0.886,-0.8814,-0.8814,-0.8814,-0.8814,-0.8814,-0.8814,-1.0257,-1.0193,-1.0088,-0.9985,-0.9908,-0.9824,-0.9753,-0.9676,-0.9581,-0.9456,-0.9411,-0.9296,-0.9188,-0.9021,-0.8951,-0.8858,-0.8854,-0.883,-0.8824,-0.882,-0.8824,-0.8933,-0.8836,-0.8835,-0.8835,-0.8835,-0.8835,0,-1.0292,-1.0255,-1.0161,-1.0052,-0.9974,-0.9883,-0.9791,-0.9745,-0.9642,-0.9568,-0.9455,-0.9381,-0.9233,-0.912,-0.8998,-0.8928,-0.8886,-0.8875,-0.8859,-0.8881,-0.8917,-0.8898,-0.8986,-0.8878,-0.8878,-0.8878,-0.8878,-0.8878,-1.036,-1.0291,-1.0155,-1.0095,-1.0032,-0.9936,-0.9868,-0.9783,-0.9714,-0.9586,-0.9531,-0.9416,-0.932,-0.9145,-0.905,-0.8938,-0.8916,-0.8881,-0.8898,-0.8923,-0.8916,-0.8922,-0.8915,-0.888,-0.8879,-0.8879,-0.8879,0,-1.0404,-1.032,-1.0194,-1.0064,-1.003,-0.996,-0.9848,-0.9778,-0.9708,-0.9602,-0.9572,-0.9462,-0.935,-0.926,-0.9113,-0.9069,-0.8951,-0.8932,-0.8989,-0.8981,-0.8942,-0.8947,-0.8826,-0.8807,-0.8863,-0.8862,-0.8862,0,-1.0429,-1.0339,-1.0219,-1.015,-1.0048,-0.9964,-0.9864,-0.9794,-0.97,-0.9615,-0.9554,-0.9476,-0.9372,-0.928,-0.9214,-0.9102,-0.9073,-0.9033,-0.9017,-0.9039,-0.9044,-0.8999,-0.9002,-0.8981,-0.8981,-0.8982,-0.8982,0,-1.0507,-1.0335,-1.0223,-1.017,-1.0021,-0.9969,-0.9904,-0.9797,-0.9729,-0.9627,-0.9582,-0.9467,-0.9405,-0.9316,-0.9234,-0.925,-0.9093,-0.9097,-0.9052,-0.9054,-0.9022,-0.9025,-0.8941,-0.8983,-0.8984,-0.8984,-0.8984,0,-1.0513,-1.0415,-1.0264,-1.0139,-1.0097,-1.0021,-0.9905,-0.9819,-0.971,-0.9664,-0.9582,-0.953,-0.9423,-0.9433,-0.9284,-0.9328,-0.9269,-0.922,-0.9215,-0.92,-0.9215,-0.9181,-0.911,-0.9099,-0.9187,-0.9189,-0.919,0,-1.0626,-1.0451,-1.0378,-1.0236,-1.0142,-1.0082,-0.9996,-0.99,-0.9833,-0.9742,-0.9665,-0.9561,-0.9549,-0.9504,-0.9442,-0.9358,-0.9301,-0.9363,-0.9231,-0.9227,-0.9265,-0.9197,-0.921,-0.9136,-0.9211,-0.9209,-0.9207,0,-1.0703,-1.0523,-1.0502,-1.0438,-1.03,-1.0219,-1.0121,-1.0,-0.9944,-0.9841,-0.9756,-0.9605,-0.9591,-0.9515,-0.9459,-0.9399,-0.9337,-0.9391,-0.9386,-0.9385,-0.9212,-0.9226,-0.9214,-0.9312,-0.931,-0.9308,-0.9223,0,-1.0735,-1.0635,-1.0576,-1.0436,-1.036,-1.0264,-1.017,-1.0102,-1.0057,-0.9988,-0.9858,-0.9752,-0.9625,-0.9586,-0.9539,-0.9431,-0.9435,-0.942,-0.9423,-0.9379,-0.9349,-0.9337,-0.9476,-0.9476,-0.9475,-0.9475,0,0,-1.0865,-1.072,-1.0641,-1.0543,-1.0474,-1.0411,-1.0317,-1.0242,-1.009,-1.0043,-1.0044,-0.9817,-0.9729,-0.9582,-0.9561,-0.9508,-0.948,-0.9498,-0.9401,-0.9393,-0.9385,-0.9355,-0.9343,-0.9474,-0.9474,-0.9474,-0.9474,0,-1.0857,-1.0775,-1.0684,-1.0604,-1.0481,-1.0412,-1.039,-1.0256,-1.0206,-1.0079,-1.0026,-0.9936,-0.9754,-0.967,-0.9603,-0.9514,-0.9477,-0.9482,-0.9468,-0.94,-0.9393,-0.9386,-0.9355,-0.9345,-0.9473,-0.9473,-0.9473,0,-1.0917,-1.082,-1.0766,-1.0607,-1.0525,-1.0428,-1.041,-1.0307,-1.0234,-1.0165,-1.0039,-0.9967,-0.9844,-0.9716,-0.9655,-0.9654,-0.9481,-0.9517,-0.9517,-0.9507,-0.9436,-0.9428,-0.942,-0.9522,-0.9522,-0.9523,0,0,-1.0923,-1.0829,-1.0697,-1.0597,-1.055,-1.0445,-1.0383,-1.0331,-1.0225,-1.0182,-1.0088,-0.9984,-0.9877,-0.9809,-0.9703,-0.9576,-0.9544,-0.9527,-0.9525,-0.9523,-0.9513,-0.9442,-0.9434,-0.9525,-0.9525,-0.9525,0,0,-1.0924,-1.0769,-1.0743,-1.0616,-1.0519,-1.0379,-1.0321,-1.0285,-1.0181,-1.0181,-1.0086,-1.0053,-0.9932,-0.9861,-0.9903,-0.9702,-0.9707,-0.9695,-0.9753,-0.9749,-0.9746,-0.9766,-0.9866,0,0,0,0,0,-1.0868,-1.0789,-1.0767,-1.0732,-1.0527,-1.0392,-1.0365,-1.0287,-1.0293,-1.0249,-1.0165,-1.0129,-0.9865,-0.9899,-0.9864,-0.9818,-0.9554,-0.9549,-0.9544,-0.9588,-0.9585,-0.9582,0,0,0,0,0,0,-1.0854,-1.0811,-1.0769,-1.0628,-1.0581,-1.0394,-1.0388,-1.0364,-1.0296,-1.0292,-1.0147,-1.0124,-1.0053,-0.9912,-0.9881,-0.9839,-0.9876,-0.9552,-0.9547,-0.9544,-0.9587,-0.9584,-0.9582,0,0,0,0,0,-1.0842,-1.0807,-1.05,-1.0628,-1.0588,-1.0465,-1.0391,-1.0371,-1.0316,-1.0184,-1.0161,-1.0263,-1.0054,-1.0022,-0.9893,-0.9855,-0.9897,-0.9886,-0.9549,-0.9546,-0.9543,-0.9585,0,0,0,0,0,0,-1.0833,-1.0787,-1.049,-1.0474,-1.0653,-1.0474,-1.0443,-1.0376,-1.0211,-1.0187,-1.0296,-1.0294,-1.0054,-1.0029,-1.0005,-0.9866,-0.9914,-0.9902,-0.9895,-0.9546,-0.9544,-0.9541,0,0,0,0,0,0,-1.0805,-1.0774,-1.0482,-1.0517,-1.0505,-1.0482,-1.0455,-1.0332,-1.0209,-1.0332,-1.0325,-1.0297,-1.0088,-1.0034,-1.0015,-0.9826,-0.9927,-0.9916,-0.9908,-0.9904,-0.9544,-0.9542,0,0,0,0,0,0,-1.079,-1.0764,-1.052,-1.0511,-1.05,-1.0321,-1.0372,-1.0165,-1.0244,-1.034,-1.0248,-1.025,-1.0093,-1.0073,-1.0021,-0.9842,-0.983,-0.9926,-0.9919,-0.9914,-0.991,0,0,0,0,0,0,0,-1.0779,-1.0975,-1.0582,-1.0506,-1.0497,-1.0331,-1.0327,-1.0323,-1.0244,-1.0246,-1.0248,-1.0249,-0.9989,-0.9977,-0.9965,-0.9854,0,0,-0.9928,-0.9922,0,0,0,0,0,0,0,0,-1.0984,-1.0977,-1.0581,-1.0578,-1.0575,-1.0331,-1.0327,-1.0324,-1.0244,-1.0246,-1.0247,-1.0249,-0.9986,-0.9976,-0.9966,0,0,0,0,0,0,0,0,0,0,0,0,0,0,0,-1.0581,-1.0578,0,-1.033,-1.0327,-1.0325,-1.0245,-1.0246,-1.0247,-1.0248,-0.9983,-0.9975,-0.9967,0,0,0,0,0,0,0,0,0,0,0,0,0,0,0,0,0,0,0,0,0,0,0,0,0,0,0,0,0,0,0,0,0,0,0,0,0,0,0,0,0,0,0,0,0,0,0,0,0,0,0,0,0,0,0,0,0,0,0,0,0,0,0,0,0,0,0,0,0]}],[{"header":{"parameterUnit":"kt","parameterCategory":2,"dx":1,"dy":1,"la1":30.253999710083008,"la2":30.299108505249023,"lo1":-89.0895004272461,"lo2":-89.04439544677734,"nx":28,"ny":28,"refTime":"2022-09-19T21:00:00:Z","depth":0,"parameterNumber":2,"parameterNumberName":"V-component_of_WINDS"},"data":[1.7954,1.8071,1.8026,1.8141,1.8121,1.8191,1.8203,1.8213,1.8212,1.8293,1.8332,1.8304,1.8287,1.8325,1.8366,1.8353,1.837,1.8441,1.8412,1.8132,1.8091,1.8051,1.8015,1.8448,1.8449,1.8703,1.8705,1.8707,1.7742,1.7722,1.7773,1.779,1.7831,1.7734,1.7742,1.7783,1.7851,1.7852,1.789,1.796,1.8011,1.797,1.8012,1.8066,1.8022,1.808,1.807,1.8068,1.777,1.7733,1.8114,1.8113,1.8113,1.8113,1.8113,1.8113,1.7344,1.7419,1.7402,1.7455,1.7454,1.7467,1.7531,1.7492,1.7542,1.758,1.7523,1.76,1.7594,1.7627,1.763,1.7688,1.7617,1.7667,1.7677,1.7689,1.7704,1.7326,1.7696,1.7695,1.7694,1.7693,1.7692,0,1.7036,1.6993,1.7039,1.7071,1.7108,1.7131,1.7145,1.7185,1.7085,1.7132,1.7196,1.7226,1.7287,1.7342,1.7375,1.7367,1.727,1.7261,1.7293,1.7314,1.7328,1.7312,1.6819,1.7249,1.7245,1.7242,1.724,1.7239,1.6621,1.6718,1.6683,1.6721,1.6717,1.6784,1.6813,1.6718,1.6755,1.6761,1.6834,1.689,1.6928,1.7043,1.7,1.7047,1.6999,1.7166,1.7006,1.7023,1.699,1.6981,1.6986,1.7197,1.7202,1.7206,1.721,0,1.639,1.6319,1.6455,1.6412,1.6405,1.6511,1.6474,1.6549,1.6505,1.6601,1.6618,1.655,1.6617,1.6547,1.6613,1.6574,1.6743,1.6702,1.674,1.6724,1.686,1.6845,1.7329,1.7384,1.6945,1.6949,1.6953,0,1.6005,1.6138,1.6021,1.6105,1.6248,1.6147,1.6292,1.6268,1.6262,1.6336,1.6217,1.6291,1.619,1.6254,1.6197,1.6325,1.6341,1.6315,1.6296,1.632,1.6322,1.6334,1.6309,1.6265,1.6262,1.626,1.6258,0,1.5643,1.5742,1.5878,1.5888,1.5858,1.5925,1.5917,1.591,1.5943,1.5976,1.5994,1.6043,1.6068,1.6106,1.6031,1.5924,1.619,1.6027,1.6162,1.6164,1.6219,1.6215,1.6668,1.6255,1.6254,1.6254,1.6253,0,1.5318,1.535,1.5562,1.553,1.556,1.5655,1.5688,1.5753,1.5756,1.5724,1.575,1.5661,1.5774,1.5615,1.5766,1.5645,1.5676,1.5664,1.5673,1.5672,1.5494,1.5747,1.6194,1.6233,1.5678,1.5674,1.5669,0,1.4918,1.5114,1.5027,1.5233,1.5312,1.5165,1.5268,1.5275,1.5241,1.5304,1.5268,1.5344,1.5212,1.5225,1.5311,1.5276,1.5434,1.5255,1.5341,1.5346,1.5334,1.5746,1.5824,1.6105,1.5608,1.5614,1.5619,0,1.4598,1.456,1.4604,1.4608,1.4601,1.467,1.4791,1.4841,1.4886,1.4913,1.5006,1.5119,1.5018,1.5046,1.498,1.5073,1.5324,1.4955,1.4953,1.5016,1.5575,1.5647,1.5695,1.526,1.5267,1.5273,1.557,0,1.4104,1.4197,1.4313,1.4337,1.438,1.4509,1.4429,1.4485,1.4413,1.4374,1.4518,1.4512,1.4568,1.4609,1.4544,1.4781,1.4728,1.4625,1.446,1.4735,1.483,1.487,1.4323,1.4318,1.4314,1.431,0,0,1.3734,1.3864,1.3767,1.3878,1.3907,1.3754,1.3897,1.391,1.394,1.3963,1.3872,1.4026,1.4027,1.4209,1.4289,1.4318,1.435,1.4259,1.4607,1.464,1.4671,1.4774,1.4817,1.4302,1.4301,1.4299,1.4298,0,1.3534,1.3535,1.3679,1.3685,1.3691,1.3642,1.3678,1.3658,1.364,1.3784,1.3656,1.3735,1.3868,1.3879,1.3903,1.4237,1.4135,1.4262,1.4461,1.4565,1.4605,1.4639,1.4749,1.4791,1.4287,1.4288,1.4288,0,1.3198,1.3181,1.3243,1.3306,1.331,1.3401,1.3207,1.3315,1.3381,1.3212,1.3356,1.3344,1.3358,1.3545,1.3627,1.3546,1.3942,1.3809,1.3835,1.384,1.3937,1.3984,1.4027,1.3468,1.3466,1.3463,0,0,1.3036,1.3123,1.3077,1.3258,1.3269,1.32,1.3243,1.3174,1.3188,1.3195,1.3175,1.3194,1.3267,1.3319,1.3386,1.3606,1.3597,1.3711,1.3749,1.3781,1.3804,1.391,1.3957,1.3454,1.3454,1.3453,0,0,1.296,1.291,1.2834,1.3034,1.305,1.3018,1.3132,1.3039,1.3091,1.3067,1.2962,1.2963,1.3138,1.3132,1.301,1.3325,1.3164,1.3192,1.3321,1.3369,1.3407,1.3401,1.2811,0,0,0,0,0,1.2713,1.2915,1.2847,1.2868,1.2951,1.3056,1.3066,1.298,1.2865,1.2956,1.2924,1.2816,1.3042,1.2932,1.2956,1.3092,1.3328,1.335,1.3371,1.3588,1.3639,1.3682,0,0,0,0,0,0,1.2721,1.2748,1.2841,1.2819,1.2836,1.3048,1.2833,1.2815,1.2853,1.2829,1.2825,1.2815,1.2747,1.2913,1.2937,1.3068,1.2803,1.3337,1.3356,1.3373,1.3606,1.3647,1.3683,0,0,0,0,0,1.2727,1.2748,1.2902,1.2815,1.2831,1.2765,1.2824,1.2808,1.2836,1.2788,1.2775,1.2768,1.2754,1.2768,1.2927,1.3059,1.2786,1.2795,1.3349,1.3364,1.3377,1.3626,0,0,0,0,0,0,1.2731,1.2735,1.2903,1.2905,1.2732,1.2752,1.2751,1.2802,1.2791,1.278,1.2725,1.2707,1.276,1.277,1.2782,1.306,1.2772,1.2782,1.2787,1.336,1.3372,1.3382,0,0,0,0,0,0,1.2722,1.2737,1.2904,1.2804,1.2793,1.274,1.274,1.2865,1.2793,1.2728,1.2712,1.2717,1.2744,1.2773,1.2781,1.2981,1.2762,1.2771,1.2777,1.2781,1.337,1.3379,0,0,0,0,0,0,1.2727,1.274,1.2803,1.2795,1.2785,1.2796,1.2849,1.294,1.2704,1.2731,1.2681,1.267,1.2751,1.2757,1.2782,1.2979,1.2981,1.2762,1.2768,1.2772,1.2775,0,0,0,0,0,0,0,1.2731,1.2666,1.2894,1.2788,1.2778,1.2919,1.292,1.292,1.2702,1.2692,1.2683,1.2674,1.2711,1.2721,1.2731,1.2977,0,0,1.2761,1.2765,0,0,0,0,0,0,0,0,1.2659,1.2664,1.2894,1.2894,1.2895,1.2919,1.292,1.292,1.27,1.2693,1.2685,1.2678,1.2714,1.2721,1.2729,0,0,0,0,0,0,0,0,0,0,0,0,0,0,0,1.2894,1.2894,0,1.2919,1.292,1.292,1.2699,1.2693,1.2687,1.2681,1.2716,1.2722,1.2729,0,0,0,0,0,0,0,0,0,0,0,0,0,0,0,0,0,0,0,0,0,0,0,0,0,0,0,0,0,0,0,0,0,0,0,0,0,0,0,0,0,0,0,0,0,0,0,0,0,0,0,0,0,0,0,0,0,0,0,0,0,0,0,0,0,0,0,0,0]}]]]